STARLINK-36653

Last updated on Sun Mar 15 2026 00:02:07 GMT+0000 (Coordinated Universal Time)

1 67842U 26033X 26073.58335648 -.01937491 00000+0 -21191-1 0 9991 2 67842 42.9988 241.6104 0001346 279.0845 208.8587 15.65599066 5450
UTC large
Height (km)
Speed (km/s)
/
Latitude / Longitude
Inclination (degrees)
Orbital Period (minutes)
Azimuth
Elevation
Range (km)
Doppler Factor

Next 0 passes for location: London (51.5072 / 0.1276)

Sorry there are no passes over London.